一网星座-0320星 (ONEWEB-0320 )

导读

ONEWEB-0320是英国OneWeb星座的低轨通信卫星,于2021年9月14日发射升空。卫星重量约147.5公斤,配备Ku波段天线,工作于12-18GHz频段,运行在约1200公里高度的近地轨道。作为OneWeb全球互联网星座组网卫星,它旨在为全球提供宽带互联网接入服务,设计寿命结束后会按计划安全脱轨,是英国低轨卫星通信网络建设的重要组成部分。

Basic Information
目录编号:
49190
目录名称:
ONEWEB-0320
国际标识:
2021-083E
轨道中心:
EARTH
卫星名称:
一网星座-0320星
卫星全名:
一网星座-0320星 (ONEWEB-0320 )
卫星状态:
在轨 (已飞行1733 天)
发射日期:
2021-09-14 UTC
国别 :
英国 (GB)
星等 :
--
Orbit Information
数据来源 国际轨道数据 AOE轨道数据
星历时间 2026-06-12T13:31:30+0800
18小时前
查看轨道信息
2026-06-09T16:00:00+0800
3天前
查看轨道信息
半长轴 7567.884km 7567.88km
偏心率 0.0001802 0.0001776
轨道倾角 87.916° 87.917°
近地点辐角 93.275° 95.150°
升交点赤经 336.449° 337.026°
平近点角 266.858° 200.626°
近地点 1188.383km 1188.398km
远地点 1191.111km 1191.088km
周期 109.200分钟 109.200分钟
每日圈数 13.186851 13.186862
Detailed Information
平衡模式:
三轴稳定
覆盖范围:
全球
运营商:
一网卫星公司
运营商所在国:
英国
制造商(研发单位):
一网卫星公司
制造商所在国:
英国
使用方式:
暂无
Satellite Introduction
OneWeb卫星网络由648颗重约125公斤的微型卫星组成,运行在1200公里的轨道上。 每颗卫星都能够提供至少每秒8千兆位的吞吐量,以使用其高吞吐量的Ku频段有效载荷为家庭和移动平台提供互联网接入。该卫星仍在工作。
2D Orbit Map
3D Orbit Map
Orbit Altitude Analysis Chart
Orbit Inclination Analysis Chart
Orbit Comprehensive Analysis Chart
View Comprehensive Chart